Torna al catalogo

CZ-4 DEB

AttivoSSO
NORAD 20912·DEBRIS·🇨🇳 China

Lanciato Sep 3, 1990 da Taiyuan Satellite Launch Center

Loading…

Prossimi Passaggi (prossime 24 ore)

TLE

AggiornatoSource: Space-Track

Epoca: Sep 14, 2026, 18:33 UTC

1 20912U 90081BV  26257.77336737  .00001040  00000-0  36440-3 0  9992
2 20912  98.5487 257.0919 0013318   9.0273 166.4660 14.37127746862420

Traccia CZ-4 DEB in tempo reale con AllMySat

Download on the App Store